Location: Ahausen
(50.4985°N, 8.2722°E)
Time: 14:37:10
(UTC+00:00)

Cosmos 1627 Rocket - Visible Passes

Search period start: 30 November 2021 00:00
Search period end: 10 December 2021 00:00
Orbit: 950 x 1004 km, 82.9° (Epoch: 30 November)

Date Brightness Start Highest point End Pass type
(mag) Time Alt. Az. Time Alt. Az. Time Alt. Az.
30 Nov 7.3 04:41:59 10° ESE 04:45:05 14° ENE 04:48:11 10° NE visible
30 Nov 4.9 06:23:04 10° S 06:29:24 73° E 06:35:42 10° NNE visible
30 Nov 4.4 17:14:01 10° N 17:20:15 76° ENE 17:26:23 10° SSE visible
30 Nov 6.8 19:00:32 10° NW 19:04:58 21° W 19:09:22 10° SW visible
01 Dec 6.8 05:05:35 10° SE 05:10:28 24° E 05:15:21 10° NNE visible
01 Dec 5.4 15:55:02 10° N 16:00:09 26° ENE 16:05:11 10° ESE visible
01 Dec 4.8 17:39:59 10° NNW 17:46:09 66° W 17:52:11 10° S visible
01 Dec 7.4 19:28:09 10° NW 19:30:18 12° WNW 19:32:26 10° W visible
02 Dec 6.0 05:30:12 10° SSE 05:36:02 40° E 05:41:49 10° NNE visible
02 Dec 4.8 16:20:35 10° N 16:26:27 41° ENE 16:32:12 10° SE visible
02 Dec 5.8 18:06:11 10° NNW 18:11:51 39° W 18:17:27 10° SSW visible
03 Dec 7.4 04:15:08 10° E 04:17:34 12° ENE 04:19:58 10° NE visible
03 Dec 5.0 05:55:29 10° S 06:01:45 66° E 06:07:59 10° NNE visible
03 Dec 4.4 16:46:21 10° N 16:52:33 69° ENE 16:58:38 10° SSE visible
03 Dec 6.7 18:32:40 10° NNW 18:37:23 23° W 18:42:03 10° SW visible
04 Dec 6.9 04:38:19 10° SE 04:42:54 22° E 04:47:28 10° NNE visible
04 Dec 4.5 06:21:17 10° SSW 06:27:39 77° WNW 06:33:57 10° N visible
04 Dec 4.7 17:12:17 10° NNW 17:18:28 73° W 17:24:33 10° S visible
04 Dec 7.3 18:59:54 10° NW 19:02:45 14° WNW 19:05:34 10° WSW visible
05 Dec 6.1 05:02:46 10° SSE 05:08:25 35° E 05:14:02 10° NNE visible
05 Dec 5.0 15:52:58 10° N 15:58:41 37° ENE 16:04:19 10° SE visible
05 Dec 5.6 17:38:25 10° NNW 17:44:13 44° W 17:49:56 10° SSW visible
06 Dec 7.5 03:48:39 10° E 03:50:01 11° ENE 03:51:24 10° ENE visible
06 Dec 5.2 05:27:55 10° S 05:34:06 59° E 05:40:16 10° NNE visible
06 Dec 4.5 16:18:41 10° N 16:24:50 61° ENE 16:30:52 10° SSE visible
06 Dec 6.5 18:04:50 10° NNW 18:09:47 26° W 18:14:42 10° SW visible
07 Dec 7.0 04:11:06 10° ESE 04:15:20 19° E 04:19:33 10° NE visible
07 Dec 4.5 05:53:36 10° S 05:59:58 85° WNW 06:06:16 10° N visible
07 Dec 4.6 16:44:35 10° NNW 16:50:47 82° W 16:56:54 10° S visible
07 Dec 7.2 18:31:50 10° NW 18:35:11 15° WNW 18:38:32 10° WSW visible
08 Dec 6.3 04:35:21 10° SE 04:40:49 32° E 04:46:14 10° NNE visible
08 Dec 4.7 06:19:49 10° SSW 06:25:58 52° WNW 06:32:06 10° N visible
08 Dec 5.5 17:10:41 10° NNW 17:16:34 49° W 17:22:23 10° SSW visible
09 Dec 5.3 05:00:22 10° SSE 05:06:28 53° E 05:12:31 10° NNE visible
09 Dec 4.6 15:51:01 10° N 15:57:06 55° ENE 16:03:04 10° SSE visible
09 Dec 6.4 17:37:01 10° NNW 17:42:10 29° W 17:47:18 10° SW visible
